This is the latest recevied weather packets stored in our database for station/object OE9FWV. If no packets are shown the sender has not sent any weather packets the latest 10 day(s).
| Time | Temp. | Humidity | Pressure | Rain* | Wind** | Luminosity | Snow |
|---|---|---|---|---|---|---|---|
| 1777690348 | 10.56° C | 73% | 1022.6 hPa | 0 mm | - | - | - |
| 1777689738 | 11.11° C | 72% | 1022.6 hPa | 0 mm | - | - | - |
| 1777689134 | 11.11° C | 72% | 1022.7 hPa | 0 mm | - | - | - |
| 1777688534 | 11.11° C | 72% | 1022.6 hPa | 0 mm | - | - | - |
| 1777687931 | 11.11° C | 71% | 1022.6 hPa | 0 mm | - | - | - |
| 1777687320 | 11.11° C | 70% | 1022.6 hPa | 0 mm | - | - | - |
| 1777686716 | 11.67° C | 70% | 1022.6 hPa | 0 mm | - | - | - |
| 1777686116 | 11.67° C | 68% | 1022.6 hPa | 0 mm | - | - | - |
| 1777685511 | 12.22° C | 67% | 1022.6 hPa | 0 mm | - | - | - |
| 1777684904 | 12.22° C | 67% | 1022.8 hPa | 0 mm | - | - | - |
| 1777684295 | 12.22° C | 67% | 1022.8 hPa | 0 mm | - | - | - |
| 1777683695 | 12.22° C | 66% | 1022.7 hPa | 0 mm | - | - | - |
| 1777682486 | 12.78° C | 65% | 1022.9 hPa | 0 mm | - | - | - |
| 1777681879 | 13.33° C | 64% | 1022.9 hPa | 0 mm | - | - | - |
| 1777680668 | 13.33° C | 63% | 1022.8 hPa | 0 mm | - | - | - |
| 1777678856 | 13.89° C | 61% | 1023 hPa | 0 mm | - | - | - |
| 1777678251 | 13.89° C | 61% | 1023 hPa | 0 mm | - | - | - |
| 1777677645 | 13.89° C | 60% | 1023 hPa | 0 mm | - | - | - |
| 1777677045 | 13.89° C | 60% | 1023 hPa | 0 mm | - | - | - |
| 1777676443 | 15° C | 58% | 1023 hPa | 0 mm | - | - | - |
| 1777675836 | 15.56° C | 56% | 1023 hPa | 0 mm | - | - | - |
| 1777675230 | 16.11° C | 54% | 1023 hPa | 0 mm | - | - | - |
| 1777674631 | 16.67° C | 52% | 1023.1 hPa | 0 mm | - | - | - |
| 1777674031 | 16.67° C | 52% | 1023.1 hPa | 0 mm | - | - | - |
| 1777673424 | 16.11° C | 53% | 1023.2 hPa | 0 mm | - | - | - |
* Rain latest hour (hover to see other rain measurements)
** Current wind speed in m/s (hover to see current wind gust speed)